Погода в Челябинске

Погода в Челябинске : погода сейчас, прогноз погоды и архив. Всё, что Вы хотите узнать о погоде в Челябинске!

Хотите узнать прогноз погоды в Челябинске? Тогда Вам сюда: Погода в Челябинске

Поиск расширенной информации на нашем сайте:

Другие новости

Новости СМИ2

Главная страница сайта

Новости сайта

03.07.2017

Напоминаем, что на нашем специализированном сайте Метеоцентр.Азия вы можете получить высокодетализированные автоматические прогнозы погоды по пунктам России, СНГ и мира в авиационном формате (включающие направление и скорость ветра, видимость, явления погоды, количество и форму облачности, нижнюю и верхнюю границу облачности).

Рекомендуем: лучшие строительные порталы Москвы

Погода в Челябинске - сегодня

Время (UTC), дата Ветер
(°,м/с) 
Видим.   Явления Облачность Т
(°С)
Тd
(°С)
f(%) Тe
(°С)
Pmin
(гПа)
dP
(гПа)
Po
(мм)
O2
(г/м3)
Тmin Tmax R s Состояние
почвы
09 20.07.17 290 (З) 20000 м    6/6 300 м кучево-дожд. 
[Cb calv]
+27.7 +13.4 41 +34  1012.6  -0.3  739  268           
12 20.07.17 300 (СЗ) 20000 м    4/4 300 м кучево-дожд. 
[Cb calv]
+28 +11.9 37 +32  1012  -0.6  739  268           
15 20.07.17 350 (С) 20000 м    ясно 
+25.4 +11 40 +28  1011.7  -0.4  739  270    +28.2       
18 20.07.17 тихо ()   4000 м    ясно 
+18.8 +13.6 72 +26  1013.2  0.8  739  276           
21 20.07.17 340 (С) 4000 м    ясно 
+16.4 +14 86 +25  1013.5  739  278           
00 21.07.17 тихо ()   10 км    ясно 
+14.5 +13.4 93 +21  1014  0.3  740  280           
03 21.07.17 тихо ()   20000 м    ясно 
+21.8 +15 65 +31  1014.2  740  273  +14.3        сухая 
06 21.07.17 090 (В) 20000 м    5/5 300 м кучево-дожд. 
[Cb calv]
+25.3 +14 50 +33  1014.3  0.4  741  270           
09 21.07.17 210 (ЮЗ) 20000 м    8/8 300 м кучево-дожд. 
[Cb calv]
+26.5 +13.4 44 +33  1014.1  -0.1  740  269           
12 21.07.17 210 (ЮЗ) 20000 м    8/8 300 м кучево-дожд. 
[Cb calv]
+26.3 +11.4 39 +30  1013.4  -0.7  740  270           
15 21.07.17 тихо ()   20000 м    9/9 300 м кучево-дожд. 
[Cb calv]
+23.9 +13.5 52 +30  1013.2  -0.4  740  271    +27.8       
18 21.07.17 110 (В) 4000 м    9/9 300 м кучево-дожд. 
[Cb calv]
+22 +12.7 56 +27  1013.2  -0.2  740  273           
21 21.07.17 310 (СЗ) 4000 м  слаб. ливневой дождь{гроза}  10/10 300 м кучево-дожд. 
[Cb calv]
+17.2 +16.2 94 +29  1014.5  0.8  740  277           
00 22.07.17 тихо ()   10 км  {гроза}  10/10 300 м кучево-дожд. 
[Cb calv]
+16.8 +16.1 96 +28  1013.7  -0.8  740  277           
03 22.07.17 140 (ЮВ) 20000 м    5/5 300 м кучево-дожд. 
[Cb calv]
+18.9 +17.9 94 +35  1012.7  -0.7  739  274  +16.5    16    влажная 
06 22.07.17 150 (ЮВ) 20000 м    6/4 300 м кучево-дожд., верхняя 
[Cb calv|Ci fib]
+22.5 +15.3 64 +32  1011.6  -0.8  738  272           
09 22.07.17 180 (Ю) 20000 м    8/8 300 м кучево-дожд. 
[Cb calv]
+24.5 +15.9 59 +35  1010.3  -1  738  269           
12 22.07.17 150 (ЮВ) 10 км  в посл. час гроза{ливн. осадки}  10/10 300 м кучево-дожд. 
[Cb calv]
+20.9 +19 89 +38  1009.2  -1.4  737  271           
15 22.07.17 340 (С) 20000 м  {гроза, ливн. осадки}  8/6 300 м кучево-дожд., верхняя 
[Cb calv|Ci fib]
+20 +17.2 84 +33  1009  -0.3  736  273    +26     
18 22.07.17 250 (З) 4000 м  {гроза, ливн. осадки}  6/6 300 м кучево-дожд. 
[Cb calv]
+17.9 +17 94 +32  1009.5  0.3  737  275           
21 22.07.17 тихо ()   4000 м  {ливн. осадки}  ясно 
+16.1 +15.3 95 +26  1009.8  0.1  737  277           
00 23.07.17 тихо ()   10 км  {ливн. осадки}  ясно 
+13.8 +13.1 96 +20  1010  -0.1  737  280           
03 23.07.17 320 (СЗ) 20000 м    ясно 
+18 +14.5 80 +27  1010.2  0.6  737  276  +13.6      влажная 
06 23.07.17 300 (СЗ) 20000 м    8/8 300 м кучево-дожд. 
[Cb calv]
+21.7 +12.7 57 +27  1009.8  -0.1  737  273           
09 23.07.17 320 (СЗ) 20000 м    8/8 300 м кучево-дожд. 
[Cb calv]
+22.8 +12 51 +27  1009.7  737  272           
Время (UTC), дата Ветер
(°,м/с) 
Видим.   Явления Облачность Т
(°С)
Тd
(°С)
f(%) Тe
(°С)
Pmin
(гПа)
dP
(гПа)
Po
(мм)
O2
(г/м3)
Тmin Tmax R s Состояние
почвы

Для получения пояснительной информации подведите курсор к названию столбца.

ПОГОДА в Челябинске - архив

Всё, что Вы хотите узнать о погоде в Челябинске - удобно и подробно!

Выберите нужную дату (начиная с 1 января 2015* года) и нажмите кнопку "Найти".
Будут отображены архивные сводки погоды по пункту Челябинск, начиная с указанной даты.


Отображать данные в формате CSV (для использования в таблицах Excel)


Внимание! Наш архив погоды предназначен исключительно для личного некоммерческого использования в познавательных целях. Если Вам необходимы официальные справки о состоянии погоды (для производственных, юридических, коммерческих и т.п. целей), обращайтесь в органы Росгидромета.

*Примечание: данная дата относится к архиву по метеостанциям СССР (Россия, СНГ, Балтия).
Архив по метеостанциям Зарубежной Европы и Азии (кроме Китая) хранится 10 дней, по другим регионам земного шара (Китай, Африка, Америка, Австралия, Океания) - 1 день.

Челябинск - район местоположения метеостанции


Название, широта, долгота, высота метеостанции:
Челябинск (город) 55.2°ш. 61.3°д. 237 м над ур. моря [Российская Федерация]

Дополнительная информация

В oтличие oт бoльшинства пoгoдных сайтoв мы публикуем пoдрoбную метеoинфoрмацию в детальнoм прoфессиoнальнoм фoрмате.

Характеристики температуры и влажнoсти вoздуха измеряются на высoте 2 м в тени вдали oт зданий и деревьев.
Скoрoсть ветра измеряется на высoте 10 м (на урoвне рoста челoвека скoрoсть ветра ниже в 1.5-2 раза). Если метеoстанция нахoдится в гoрoде или в лесу, тo скoрoсть ветра занижена на 2-4 м/с пo сравнению с oткрытым местoм. Скoрoсть ветра над акватoриями крупных рек и oзёр, а также на вершинах хoлмoв на 2-5 м/с выше, чем в oбычных услoвиях.
Атмoсфернoе давление в разных тoчках местнoсти мoжет значительнo oтличаться oт давления на метеoстанции, в зависимoсти oт услoвий рельефа (при пoдъёме на 10 м давление пoнижается примернo на 1 мм рт.ст.).